Date,TemperatureHighF,TemperatureAvgF,TemperatureLowF,DewpointHighF,DewpointAvgF,DewpointLowF,HumidityHigh,HumidityAvg,HumidityLow,PressureMaxIn,PressureMinIn,WindSpeedMaxMPH,WindSpeedAvgMPH,GustSpeedMaxMPH,PrecipitationSumIn
2014-1-6,-12.4,-13.0,-13.4,-16.8,-17.4,-18.0,81,80,79,30.14,30.11,8,5,16,0.00
2014-1-7,6.3,-5.3,-12.6,2.4,-10.0,-17.0,87,80,72,30.27,30.13,8,5,16,0.00
2014-1-8,18.4,9.3,0.5,11.5,5.1,-2.5,90,83,74,30.40,30.22,3,1,16,0.00
2014-1-9,25.4,12.0,-0.3,24.1,9.2,-3.5,95,88,79,30.43,30.12,4,2,16,0.00
2014-1-10,40.6,34.3,25.4,40.1,33.5,24.2,98,97,94,30.12,29.50,7,3,16,0.00
2014-1-11,41.6,36.7,32.3,41.3,35.6,29.4,99,96,87,29.58,29.26,10,5,17,0.00
2014-1-12,40.9,33.4,29.8,33.1,29.7,26.8,93,86,72,29.84,29.58,9,5,17,0.00
2014-1-13,47.1,41.8,34.6,40.3,35.0,31.9,90,77,69,29.61,29.42,6,4,16,0.00
2014-1-14,37.5,30.7,23.0,32.0,25.6,17.4,95,82,62,29.68,29.52,13,5,18,0.00
2014-1-15,25.9,21.9,17.8,18.6,16.6,12.1,88,80,70,29.91,29.68,13,6,18,0.00
2014-1-16,29.2,23.0,17.3,27.2,19.9,12.2,94,88,76,29.84,29.48,8,6,16,0.00
2014-1-17,26.7,19.1,10.9,20.1,14.3,7.3,88,81,74,29.85,29.54,7,3,16,0.00
2014-1-18,19.1,15.3,10.3,17.2,12.2,7.7,92,87,77,29.84,29.66,6,2,16,0.00
2014-1-19,33.6,21.8,10.2,27.0,18.0,8.1,93,85,77,29.71,29.42,10,4,19,0.00
2014-1-20,35.9,30.9,20.3,30.3,25.4,17.0,90,80,73,29.82,29.40,7,4,16,0.01
2014-1-21,20.2,8.4,3.0,17.2,0.6,-4.4,89,71,49,30.09,29.81,8,4,16,0.00
2014-1-22,12.4,7.3,1.6,9.5,2.2,-4.6,89,79,67,30.09,29.82,7,3,16,0.00
2014-1-23,10.0,4.7,-0.3,4.8,-0.2,-4.6,85,80,72,30.41,29.91,8,5,16,0.00
2014-1-24,19.4,6.1,-6.5,17.2,0.4,-10.6,91,77,63,30.41,29.50,11,6,19,0.00
2014-1-25,28.7,19.4,7.8,26.6,14.5,0.0,95,82,56,29.70,29.25,12,7,25,0.00
2014-1-26,30.4,16.9,4.7,26.3,12.5,-1.3,92,82,70,29.70,29.29,12,5,20,0.00
2014-1-27,20.9,3.3,-7.8,18.9,-2.4,-13.8,92,77,64,30.27,29.45,14,8,23,0.00
2014-1-28,4.5,-4.6,-12.7,-6.7,-11.5,-16.9,82,72,54,30.34,30.17,7,3,16,0.00
2014-1-29,18.1,8.7,-2.3,6.8,0.0,-6.9,81,68,50,30.17,30.04,9,4,18,0.00
2014-1-30,30.3,21.2,13.7,24.4,11.9,4.3,93,68,55,30.04,29.65,11,6,22,0.00
2014-1-31,31.5,28.4,25.6,26.8,24.1,19.7,95,84,64,30.00,29.74,5,2,16,0.01